Temperature
12 12 12 12 12 12 12 12 12 12 11 11 11 10 10 9 9 9 8 7 7 6 6 6 6 5 5 5 5 5 5 5 5 5 4 4 4 4 4 4 4 4 3
11 11 11 11 11 11 11 11 11 11 10 10 10 9 9 8 8 7 7 6 6 5 5 5 5 5 5 5 5 5 5 4 4 4 4 3 3 3 3 3 3 3 3
10 10 9 10 10 10 10 10 10 10 9 9 9 8 8 7 7 6 5 5 5 4 4 4 4 4 4 4 4 4 4 4 4 4 3 3 3 2 2 2 2 2 2
9 9 9 9 9 9 9 9 9 9 8 8 8 7 7 6 5 5 4 4 3 3 3 3 3 3 3 3 3 3 3 3 3 3 3 2 2 2 2 2 2 2 2
8 8 8 8 8 9 9 8 8 8 7 7 6 6 5 4 4 3 3 3 2 2 2 2 2 2 2 2 3 3 3 3 3 2 2 2 2 1 1 1 1 1 1
8 8 8 8 8 8 8 7 7 7 6 6 5 4 4 3 3 2 2 2 2 2 2 2 2 2 2 2 2 2 2 2 2 2 2 1 1 1 1 1 1 0 0
8 8 7 7 8 7 7 7 6 6 5 5 4 3 3 2 2 2 1 1 1 1 1 1 1 1 1 1 1 1 1 1 1 1 1 1 1 0 0 0 0 -0 -0
7 7 7 7 7 7 6 6 5 5 4 4 3 2 2 1 1 1 1 1 1 1 1 1 1 1 1 1 1 1 1 1 1 1 1 0 0 -0 -0 -0 -0 -0 -1
7 7 7 7 6 6 6 5 5 4 3 3 2 1 1 1 1 0 0 0 0 0 0 0 0 0 0 0 1 1 0 0 0 0 0 -0 -0 -0 -0 -1 -1 -1 -1
7 7 7 6 6 5 5 4 4 3 2 2 1 1 1 0 -0 -0 -0 0 0 0 0 0 0 0 0 0 0 0 0 -0 -0 -0 -0 -0 -1 -1 -1 -1 -1 -1 -2
6 6 6 5 5 4 4 3 3 2 1 1 1 0 0 -0 -0 -0 -0 0 0 0 0 0 0 0 0 -0 -0 -0 -0 -0 -0 -1 -1 -1 -1 -1 -1 -1 -2 -2 -2
5 5 5 5 4 4 3 3 2 1 1 0 -0 -0 -0 -0 -0 -0 -0 0 0 0 0 0 -0 -0 -0 -0 -0 -0 -0 -0 -0 -1 -1 -1 -1 -1 -2 -2 -2 -2 -2
5 4 4 4 3 3 2 2 1 1 1 0 -0 -0 -0 -0 -0 -0 -0 0 0 0 0 -0 -0 -0 -0 -0 -0 -1 -1 -1 -1 -1 -1 -1 -1 -2 -2 -2 -2 -2 -3
4 4 3 3 3 2 2 2 1 1 1 0 0 -0 -0 -0 -0 0 0 0 0 0 0 -0 -0 -0 -0 -0 -1 -1 -1 -1 -1 -1 -1 -1 -2 -2 -2 -2 -3 -3 -3
3 3 3 3 3 2 2 2 1 1 1 1 1 0 -0 0 0 0 0 0 0 -0 -0 -0 -0 -0 -0 -0 -1 -1 -1 -1 -1 -1 -2 -2 -2 -2 -3 -3 -3 -3 -3
2 2 2 2 2 2 1 1 1 1 0 0 0 0 -0 -0 -0 -0 0 -0 -0 -1 -1 -0 -0 -1 -1 -1 -1 -1 -1 -2 -2 -2 -2 -2 -2 -3 -3 -3 -4 -4 -4
2 2 2 2 2 1 1 1 1 1 0 0 0 0 0 -0 -0 -0 -0 -1 -1 -1 -1 -0 -1 -1 -1 -1 -1 -1 -2 -2 -2 -2 -3 -3 -3 -3 -3 -4 -4 -4 -4
1 1 1 1 1 1 1 1 1 1 1 1 1 0 0 0 -0 -0 -1 -1 -1 -1 -1 -0 -1 -1 -1 -2 -2 -2 -2 -3 -3 -3 -3 -3 -4 -4 -4 -4 -4 -5 -5
0 0 0 1 1 1 1 1 1 0 0 0 0 0 0 0 -0 -1 -1 -1 -1 -0 -1 -1 -1 -1 -1 -2 -2 -2 -3 -3 -3 -3 -3 -4 -4 -4 -4 -5 -5 -5 -5
-0 -0 -0 0 0 0 0 0 0 0 0 0 0 0 0 -0 -0 -0 -0 -0 -0 -0 -1 -1 -1 -1 -2 -2 -2 -3 -3 -3 -4 -4 -4 -4 -5 -5 -5 -5 -5 -6 -6
-1 -1 -1 -0 -0 -0 -0 -0 -0 -0 -0 -0 0 0 -0 -0 -0 -0 -0 -0 -0 -0 -1 -1 -1 -2 -2 -2 -3 -3 -3 -4 -4 -4 -4 -5 -5 -5 -6 -6 -6 -6 -6
-2 -1 -1 -1 -1 -1 -1 -1 -1 -0 -0 -0 -0 -0 -0 -1 -1 -0 -0 -0 -1 -1 -1 -1 -2 -2 -2 -3 -3 -4 -4 -4 -4 -5 -5 -5 -5 -6 -6 -6 -6 -7 -7
-2 -2 -2 -1 -1 -1 -1 -1 -1 -1 -1 -1 -1 -1 -1 -1 -1 -1 -1 -1 -1 -1 -1 -2 -2 -2 -2 -3 -3 -4 -4 -4 -5 -5 -5 -6 -6 -6 -6 -7 -7 -7 -7
-3 -3 -2 -2 -2 -2 -2 -2 -1 -1 -1 -1 -1 -1 -1 -1 -1 -1 -1 -1 -2 -2 -2 -2 -2 -3 -3 -3 -4 -4 -5 -5 -5 -6 -6 -6 -6 -6 -7 -7 -7 -7 -8
-4 -3 -3 -3 -3 -2 -2 -2 -2 -2 -2 -2 -2 -2 -2 -2 -2 -2 -2 -2 -2 -2 -2 -3 -3 -3 -3 -4 -4 -5 -5 -5 -6 -6 -6 -6 -7 -7 -7 -7 -7 -8 -8
-4 -4 -4 -3 -3 -3 -3 -3 -3 -3 -2 -2 -2 -2 -2 -2 -2 -2 -2 -3 -3 -3 -3 -3 -4 -4 -4 -4 -5 -5 -5 -6 -6 -6 -6 -7 -7 -7 -7 -8 -8 -8 -9
Wind_Speed
6 6 7 6 6 7 6 6 7 6 6 6 5 5 4 2 2 2 1 1 2 1 2 2 2 2 2 2 1 1 1 0 2 2 2 2 2 3 4 6 7 8 9
6 7 7 7 7 6 6 6 6 6 6 5 5 4 4 3 2 2 2 2 2 2 2 2 2 2 3 2 2 2 2 1 1 2 2 1 2 2 2 3 4 6 7
7 8 7 7 7 7 6 6 6 6 6 5 5 4 4 3 2 2 3 3 3 3 3 3 2 3 3 2 3 2 2 2 1 2 2 1 2 1 2 2 3 4 6
8 8 8 7 7 6 6 6 6 6 6 5 4 4 4 3 3 3 3 4 4 4 4 4 4 3 3 2 2 2 1 2 2 3 2 2 2 2 2 2 2 3 3
8 8 8 7 7 7 7 6 6 6 6 6 5 4 3 3 3 3 4 5 5 5 4 4 4 4 4 3 2 1 1 2 2 2 2 2 1 1 1 1 1 2 2
9 8 8 8 7 7 7 7 6 5 5 5 5 5 4 3 4 6 5 4 5 5 4 3 3 3 4 5 5 4 3 2 2 2 2 2 2 1 1 1 1 1 2
9 8 8 9 8 8 7 7 6 6 5 5 5 5 4 4 6 6 7 5 5 5 5 3 2 2 4 3 4 6 6 5 3 4 3 3 3 3 2 1 0 1 2
9 9 9 9 9 8 7 7 6 5 5 4 5 5 5 5 7 7 8 5 4 4 4 4 3 2 2 3 3 3 3 3 2 3 4 3 3 3 3 3 2 1 2
9 10 10 10 10 9 8 8 6 5 5 4 4 6 5 5 8 8 8 4 3 3 3 3 4 3 4 5 4 2 1 1 2 4 4 4 4 4 4 3 2 2 1
10 9 9 10 10 10 9 7 5 5 5 5 5 5 6 5 8 9 9 4 4 3 2 3 6 6 5 5 5 4 3 2 0 1 2 2 2 2 2 3 3 2 1
6 7 8 9 9 9 8 6 6 6 6 5 5 5 5 7 9 11 11 5 5 4 4 3 4 7 7 6 6 5 5 4 3 2 1 1 0 0 1 2 3 4 3
6 7 8 8 8 7 8 7 7 7 7 6 6 5 5 6 8 10 13 11 9 5 5 4 5 9 8 7 5 6 6 4 3 2 2 2 2 2 2 3 4 5 5
6 7 7 8 8 8 9 9 8 8 7 7 6 6 6 5 7 14 14 14 14 7 6 8 9 10 9 6 7 7 5 3 3 3 3 3 3 3 2 1 2 3 5
7 7 7 8 8 8 8 8 8 8 8 7 8 7 6 6 6 6 6 7 11 9 6 8 10 10 8 7 6 5 3 4 4 4 3 3 2 2 3 3 2 1 2
6 7 8 8 8 8 8 8 9 9 9 9 8 7 7 8 10 14 9 7 6 6 5 3 3 3 4 4 4 4 4 4 4 4 4 4 3 3 3 3 3 2 2
6 7 7 7 7 7 7 7 11 11 14 16 14 11 9 11 11 14 16 16 15 14 8 5 6 6 7 6 6 6 5 6 5 5 5 5 4 4 4 3 3 4 4
7 6 6 7 7 8 7 8 7 9 14 16 17 17 16 14 14 14 14 15 15 15 9 7 7 8 7 7 6 6 6 6 5 5 6 5 5 5 4 4 4 4 5
6 7 7 7 7 8 8 8 7 7 7 7 12 18 18 17 16 15 15 12 9 11 8 8 9 8 8 8 7 7 6 6 5 5 6 6 6 5 5 5 5 5 6
6 5 6 6 7 7 7 7 7 8 7 6 5 8 15 16 17 17 15 9 9 10 9 9 9 9 8 8 8 7 7 7 6 6 6 7 6 6 6 6 6 9 8
5 7 6 5 6 6 7 7 7 8 8 7 8 7 6 8 8 9 10 9 10 10 10 10 9 9 8 8 8 7 7 7 7 7 7 7 6 6 7 8 7 7 7
4 5 6 5 5 6 6 7 7 7 7 8 8 8 11 8 9 9 9 9 10 10 9 9 8 8 8 7 7 8 9 8 7 7 7 7 7 6 7 7 7 7 7
4 4 4 5 5 5 6 6 7 7 8 8 6 7 13 9 7 8 8 8 8 7 7 7 7 7 8 8 8 8 8 8 7 7 7 7 7 7 7 7 7 7 7
4 4 4 4 4 6 6 5 6 6 7 7 6 6 6 7 7 7 7 7 6 6 6 6 7 7 7 8 9 8 8 8 8 8 7 7 7 7 7 8 8 8 9
4 4 4 3 3 4 4 5 5 5 5 5 5 5 5 6 6 6 6 5 5 5 6 6 7 8 9 8 10 11 12 12 11 10 9 8 8 7 7 8 9 9 9
4 3 3 3 3 3 3 3 3 4 4 4 4 4 4 4 5 4 4 4 5 5 6 6 6 7 8 10 10 11 13 14 13 12 10 8 8 8 8 9 9 9 10
3 3 3 3 2 2 3 3 3 3 3 3 3 3 3 4 4 4 4 4 4 4 5 5 6 8 8 9 11 12 13 14 15 15 12 8 9 9 9 9 10 10 10
Wind_Direction
159 146 136 134 129 126 128 133 133 131 136 139 142 138 137 133 120 128 156 163 155 123 93 102 80 60 60 25 11 17 9 251 194 118 105 99 74 55 42 45 41 33 24
153 141 137 133 128 128 133 136 134 135 136 137 137 137 138 132 130 143 148 144 150 141 120 108 91 83 70 44 38 41 32 18 149 151 121 108 83 64 44 38 31 28 22
149 143 141 142 142 143 143 141 138 137 135 132 135 140 140 141 140 139 139 130 124 117 109 106 96 99 83 62 56 47 23 22 53 126 123 103 82 65 56 35 30 18 18
155 153 156 160 157 151 147 144 144 144 143 141 139 142 145 145 144 145 139 128 115 102 94 93 89 98 105 92 66 44 39 63 76 104 111 99 84 58 64 39 12 7 2
163 166 169 161 152 146 146 146 145 148 150 148 143 144 145 148 156 156 151 143 132 117 99 88 88 100 111 109 101 74 80 95 100 108 114 107 95 67 57 13 0 336 345
175 177 166 158 155 155 153 151 150 150 150 152 155 155 158 165 169 172 159 148 145 139 129 105 89 73 83 85 88 87 98 123 144 136 136 147 148 133 104 44 22 8 314
183 177 169 164 163 164 160 159 162 163 162 163 164 162 166 178 181 178 170 147 146 149 150 150 142 118 91 70 69 60 50 61 110 150 152 165 165 176 157 137 173 217 265
185 180 175 170 169 165 165 171 170 165 169 169 172 170 169 188 187 179 163 137 137 148 160 165 161 156 164 144 114 80 47 30 64 100 138 156 168 175 178 179 191 236 294
192 188 181 175 172 171 177 178 172 166 170 172 172 172 175 190 188 179 157 138 147 167 180 183 178 192 202 165 140 133 90 354 76 128 142 158 170 175 167 128 110 72 348
201 191 179 174 175 180 180 173 166 166 175 173 178 183 184 193 196 188 173 157 169 187 205 214 209 206 212 185 160 166 188 220 196 86 67 52 45 40 120 145 152 143 183
193 177 175 177 178 176 170 165 164 166 170 179 186 194 197 205 207 204 195 178 185 191 203 214 230 222 217 212 191 187 211 199 182 183 203 261 319 141 139 164 169 160 174
178 178 179 176 174 170 168 171 172 175 183 191 196 205 214 214 217 218 214 209 200 193 204 208 220 226 224 225 213 209 222 195 165 186 208 219 220 229 229 220 217 212 213
183 185 181 175 174 171 176 180 182 188 196 199 201 212 218 215 222 224 224 220 214 203 208 213 218 226 226 230 230 230 225 186 180 207 222 224 218 218 205 222 245 248 258
195 190 181 179 180 180 184 187 193 197 202 204 206 215 218 215 217 220 220 225 223 217 210 220 223 227 222 220 234 240 211 198 202 214 222 219 195 187 202 202 213 232 288
205 196 189 189 187 192 197 202 203 207 206 206 209 209 208 219 223 213 205 210 205 204 180 185 198 208 216 216 222 228 221 221 227 211 212 216 215 211 217 204 203 201 218
215 206 200 195 195 197 200 211 218 216 222 223 220 215 220 226 227 220 218 218 217 212 201 201 212 218 223 225 226 227 222 222 220 215 215 217 220 219 225 215 207 214 236
228 216 205 201 200 200 202 207 217 223 228 230 230 228 226 226 227 223 220 218 216 211 212 213 218 220 223 222 222 221 224 221 212 211 215 216 216 218 219 224 224 232 244
238 224 214 210 206 205 206 208 210 212 217 226 229 229 229 228 226 222 218 212 217 215 215 218 221 222 221 222 222 223 225 220 212 214 215 215 211 213 219 225 226 232 245
244 233 222 217 212 210 206 206 209 212 219 221 215 226 228 229 228 226 218 211 215 219 220 222 223 221 221 221 222 220 219 219 215 211 216 215 212 211 223 227 229 243 246
257 243 230 222 213 211 208 208 211 214 217 220 222 219 205 207 216 219 217 214 218 223 222 223 223 221 220 220 219 218 220 221 219 219 219 217 213 213 224 227 228 234 239
267 257 238 229 220 215 213 214 214 215 218 222 226 217 203 204 214 217 217 219 221 224 223 223 223 221 220 218 218 218 219 223 221 219 219 217 214 218 224 227 230 233 239
261 259 247 235 228 222 221 218 218 219 220 224 226 221 220 215 217 221 223 225 225 224 219 218 222 221 217 215 215 216 219 223 222 219 220 218 217 220 222 225 230 233 237
257 258 256 247 235 235 232 224 222 223 224 224 220 214 213 215 219 223 226 224 220 220 217 217 223 224 218 215 214 212 217 221 218 212 214 218 219 221 222 226 229 233 238
257 254 257 257 245 237 233 228 224 224 223 221 218 217 217 218 221 224 223 218 216 219 218 217 223 225 220 217 218 220 224 226 222 216 212 217 219 221 223 228 232 236 240
265 257 256 252 247 243 241 234 226 223 223 223 221 220 220 219 222 224 219 217 220 223 223 219 222 225 225 225 225 227 231 234 232 224 216 217 222 222 226 232 236 239 241
273 266 263 259 252 248 244 241 235 228 225 224 221 220 219 220 224 225 221 220 224 226 227 223 224 227 229 232 235 238 241 245 246 242 227 218 222 227 228 236 236 239 243
Height
1492 1493 1495 1497 1500 1502 1504 1506 1507 1508 1509 1509 1509 1509 1508 1508 1507 1506 1505 1504 1504 1503 1502 1502 1501 1501 1500 1500 1500 1500 1501 1501 1501 1501 1501 1501 1500 1500 1499 1499 1498 1497 1496
1488 1489 1491 1494 1496 1498 1500 1502 1503 1504 1504 1504 1504 1503 1503 1502 1502 1501 1500 1500 1499 1499 1498 1498 1497 1497 1497 1496 1496 1496 1497 1497 1497 1497 1497 1497 1497 1497 1496 1495 1495 1494 1494
1484 1486 1488 1490 1493 1495 1496 1498 1499 1499 1500 1499 1499 1499 1498 1497 1496 1496 1495 1495 1495 1494 1494 1494 1494 1494 1493 1493 1493 1493 1493 1493 1493 1493 1494 1494 1493 1493 1493 1492 1492 1491 1491
1481 1483 1485 1487 1490 1491 1493 1494 1495 1495 1495 1495 1494 1494 1493 1492 1492 1491 1491 1490 1490 1490 1490 1490 1490 1490 1490 1490 1490 1490 1489 1490 1490 1490 1490 1490 1490 1490 1489 1489 1489 1489 1488
1477 1479 1481 1484 1486 1488 1489 1490 1491 1491 1490 1490 1490 1489 1488 1488 1487 1487 1487 1487 1487 1487 1487 1487 1487 1487 1487 1487 1487 1486 1486 1486 1486 1486 1486 1487 1487 1486 1486 1486 1486 1486 1485
1474 1476 1478 1480 1482 1484 1485 1486 1486 1486 1486 1486 1485 1484 1484 1483 1483 1483 1483 1483 1484 1484 1484 1484 1484 1484 1484 1484 1484 1483 1484 1484 1483 1483 1483 1484 1484 1484 1484 1484 1483 1483 1483
1470 1472 1474 1476 1478 1480 1481 1482 1482 1482 1482 1481 1481 1480 1480 1480 1480 1480 1480 1480 1481 1481 1481 1481 1481 1481 1481 1481 1481 1481 1481 1481 1481 1481 1481 1481 1481 1481 1481 1481 1481 1481 1480
1466 1468 1470 1472 1474 1475 1476 1477 1478 1478 1478 1477 1477 1477 1477 1477 1477 1477 1477 1478 1478 1478 1478 1479 1479 1479 1479 1479 1479 1479 1479 1479 1478 1478 1478 1478 1479 1479 1479 1479 1479 1478 1478
1461 1463 1465 1467 1469 1470 1472 1473 1473 1473 1473 1473 1473 1474 1474 1474 1474 1474 1475 1475 1475 1476 1476 1476 1476 1476 1476 1476 1477 1477 1477 1476 1476 1476 1476 1476 1476 1476 1477 1477 1477 1476 1476
1457 1459 1461 1463 1464 1466 1467 1468 1468 1469 1469 1469 1470 1470 1471 1471 1472 1472 1472 1472 1473 1473 1474 1474 1474 1474 1474 1474 1475 1475 1475 1475 1475 1475 1475 1474 1474 1475 1475 1475 1475 1475 1474
1453 1455 1456 1458 1459 1461 1462 1463 1464 1464 1465 1465 1466 1467 1467 1468 1469 1469 1469 1470 1471 1471 1471 1472 1472 1472 1472 1472 1473 1473 1473 1473 1473 1473 1473 1473 1473 1473 1473 1473 1473 1473 1472
1448 1450 1451 1452 1454 1455 1456 1458 1459 1459 1460 1461 1462 1463 1464 1465 1465 1466 1467 1467 1468 1469 1469 1470 1470 1470 1470 1470 1470 1471 1471 1471 1471 1471 1471 1471 1471 1471 1471 1471 1470 1470 1470
1444 1445 1446 1447 1448 1450 1451 1452 1453 1454 1455 1456 1458 1459 1460 1461 1462 1463 1464 1464 1465 1466 1467 1467 1467 1468 1468 1468 1468 1468 1468 1468 1468 1468 1468 1468 1468 1468 1468 1468 1467 1467 1467
1439 1440 1441 1442 1443 1445 1446 1447 1448 1450 1451 1452 1453 1454 1456 1457 1458 1459 1460 1461 1462 1463 1463 1464 1464 1465 1465 1465 1465 1465 1465 1465 1465 1465 1465 1465 1465 1465 1465 1464 1464 1464 1463
1434 1435 1436 1437 1438 1440 1441 1442 1443 1445 1447 1448 1449 1450 1451 1452 1454 1455 1456 1457 1458 1459 1460 1460 1460 1461 1461 1462 1462 1462 1462 1462 1461 1461 1461 1461 1461 1461 1461 1460 1460 1459 1459
1429 1430 1431 1432 1433 1434 1436 1437 1438 1440 1442 1443 1444 1446 1447 1449 1450 1451 1452 1453 1454 1455 1455 1455 1456 1457 1457 1457 1457 1458 1458 1457 1457 1457 1457 1457 1456 1456 1456 1456 1455 1455 1454
1424 1424 1425 1427 1428 1429 1430 1432 1433 1435 1436 1437 1439 1440 1442 1443 1445 1446 1447 1449 1449 1450 1450 1450 1451 1452 1452 1452 1453 1453 1453 1453 1452 1452 1452 1452 1452 1451 1451 1451 1450 1450 1449
1419 1419 1420 1421 1422 1424 1425 1426 1428 1429 1430 1431 1433 1435 1436 1438 1439 1441 1442 1443 1443 1444 1444 1445 1445 1446 1447 1447 1447 1447 1447 1447 1447 1446 1446 1446 1446 1446 1445 1445 1445 1444 1444
1413 1413 1414 1415 1416 1418 1420 1421 1422 1424 1425 1426 1428 1429 1430 1432 1433 1435 1435 1436 1436 1437 1438 1439 1439 1440 1440 1441 1441 1441 1441 1441 1440 1440 1440 1440 1440 1439 1439 1439 1438 1438 1437
1408 1408 1409 1410 1411 1412 1414 1415 1417 1418 1419 1420 1421 1423 1424 1425 1426 1427 1428 1429 1430 1430 1431 1432 1432 1433 1433 1434 1434 1434 1434 1434 1433 1433 1433 1433 1433 1433 1433 1432 1432 1432 1431
1403 1403 1404 1405 1405 1406 1408 1409 1410 1412 1413 1414 1415 1417 1418 1418 1419 1420 1421 1422 1422 1423 1424 1424 1425 1425 1426 1426 1426 1426 1426 1426 1426 1426 1426 1426 1426 1426 1426 1426 1425 1425 1424
1398 1398 1398 1399 1400 1401 1402 1403 1404 1405 1406 1408 1409 1410 1411 1412 1412 1413 1414 1415 1415 1416 1416 1417 1417 1417 1418 1418 1418 1418 1418 1418 1419 1419 1419 1419 1419 1419 1419 1419 1418 1418 1418
1393 1393 1393 1394 1394 1395 1396 1397 1398 1399 1400 1401 1402 1403 1404 1405 1406 1406 1407 1407 1408 1408 1408 1409 1409 1409 1410 1410 1410 1410 1410 1411 1412 1412 1412 1412 1412 1412 1412 1412 1412 1411 1411
1389 1389 1389 1389 1389 1390 1391 1392 1393 1393 1394 1395 1396 1397 1398 1398 1399 1399 1400 1400 1400 1400 1401 1401 1401 1401 1402 1402 1402 1402 1403 1404 1404 1404 1405 1405 1405 1405 1405 1404 1404 1404 1404
1385 1384 1384 1385 1385 1385 1386 1386 1387 1388 1389 1389 1390 1391 1391 1392 1392 1393 1393 1393 1393 1393 1393 1394 1394 1394 1394 1394 1395 1395 1396 1396 1397 1397 1397 1397 1397 1397 1397 1397 1397 1397 1396
1381 1381 1380 1380 1381 1381 1381 1381 1382 1383 1383 1384 1384 1385 1385 1386 1386 1386 1386 1386 1386 1386 1387 1387 1387 1387 1387 1388 1388 1388 1389 1389 1390 1390 1390 1390 1390 1390 1390 1390 1389 1389 1388